www.pogodaiklimat.ru

Погода и климат >> Архив погоды >> Перу >> Nazca


ПОГОДА в Nazca

  • Прогноз погоды в Nazca
  • Монитор погоды в Nazca
  • Климат города

АРХИВ ПОГОДЫ в Nazca

Время (UTC), дата Ветер
(напр.,м/с)
 
Видим.   Явления Облачность Т
(С)
Тd
(С)
f
(%)
Тe
(С)
Тes
(С)
Комфортность P
(гПа)
Po
(гПа)
Тmin
(С)
Tmax
(С)
R
(мм)
R24
(мм)
S
(см)
18 16.06 нст 2 10 км {туман} 3/0 2000 м
[As trans]
+21.2 +14.7 66 +24 +35 комфорт 1015.1 951.6
21 16.06 З 3 10 км ясно +22.8 +14.5 59 +26 +29 жарко 1012.7 947.7
12 17.06 нст 1 500 м туман 10/10 300 м
[St]
+12.3 +11.6 95 +12 +12 1017.4 952.2 +11.4
15 17.06 СЗ 1 1000 м дымка {туман} 10/10 300 м
[St]
+14.4 +11.7 84 +15 +15 1018.1 953.3
18 17.06 ЮЗ 2 10 км {туман} ясно +21.1 +14.4 66 +24 +36 комфорт 1014.7 951.5
21 17.06 СЗ 2 10 км {туман} ясно +24.6 +15.0 55 +27 +30 жарко 1011.8 949.5
12 18.06 нст 2 5000 м дымка ясно +11.8 +10.8 94 +11 +11 1017.5 952.2 +10.8
15 18.06 СЗ 2 8000 м мгла {туман} ясно +23.2 +16.0 64 +28 +38 душно 1015.9 953.1
18 18.06 З 3 10 км ясно +27.4 +16.8 52 +31 +41 душно 1013.1 951.0
21 18.06 З 2 10 км ясно +27.2 +17.9 57 +32 +34 очень
душно
1011.3 949.3
12 19.06 нст 1 8000 м дымка 5/0 2000 м
[As trans]
+13.2 +11.5 89 +13 +14 1017.6 952.3 +12.8
15 19.06 З 3 10 км ясно +23.8 +15.6 60 +27 +36 жарко 1015.6 952.6
18 19.06 З 3 10 км {туман} ясно +29.0 +16.6 47 +32 +43 душно 1012.2 950.5
21 19.06 ЮЗ 5 10 км ясно +27.0 +14.5 46 +29 +31 жарко 1011.4 949.6
12 20.06 нст 1 4000 м дымка ясно +10.8 +10.5 98 +10 +11 1016.3 950.8 +10.3
15 20.06 нст 1 9000 м мгла {туман} ясно +20.4 +14.8 70 +24 +36 комфорт 1014.7 951.1
18 20.06 0 н/о +16.4 1012.5 950.3
21 20.06 0 н/о +15.5 1013.6 951.0
12 21.06 СЗ 2 5000 м дымка 10/10 300 м
[St]
+13.8 +12.1 89 +13 +13 1017.1 951.9 +13.2
15 21.06 З 2 8000 м 8/8 450 м
[St]
+16.0 +13.1 83 +16 +18 1016.6 951.9
21 21.06 нст 3 10 км ясно +23.4 +14.4 57 +27 +29 душно 1012.0 949.2
12 22.06 штиль 0 5000 м дымка 4/0 2000 м
[Ac trans]
+11.0 +10.3 95 +10 +11 1018.2 952.3 +8.5
15 22.06 нст 1 8000 м мгла {туман} ясно +18.7 +13.8 73 +21 +32 комфорт 1017.3 953.2
18 22.06 нст 3 10 км {туман} ясно +25.0 +16.3 58 +28 +40 жарко 1014.0 951.4
21 22.06 З 5 8000 м пыльный позёмок {туман} ясно +25.7 +15.6 54 +29 +30 душно 1012.2 949.8
12 23.06 нст 1 5000 м дымка ясно +10.6 +9.9 95 +11 +11 1017.9 952.3 +10.0

 

Местоположение метеостанции Nazca (Перу): широта -14.86 долгота -74.96 высота над уровнем моря 567 м.

В архиве по умолчанию представлена погода в Nazca за последнюю неделю. Архивные данные за месяц целиком и за предыдущие месяцы, начиная с января 2011 года, Вы можете получить, выбрав интересующий диапазон дат из раскрывающегося списка и нажав кнопку "Ввод!".


*Определитесь, кто Вы:
робот инопланетянин человек

Внимание! Время в таблицах - всемирное. Для получения местного времени необходимо прибавить поправку, которая в Nazca равна -5 ч.

Смотрите также архив погоды в соседних городах и на ближайших метеорологических станциях:

Погода в Pisco (Перу) (184 км)
Погода в Ayacucho (Перу) (207 км)
Погода в Andahualaylas (Перу) (216 км)
Погода в Cuzco (Перу) (359 км)
Погода в Lima (Перу) (394 км)
Погода в Arequipa (Перу) (399 км)
Погода в Ilo (Перу) (499 км)
Погода в Juliaca (Перу) (521 км)
Погода в Huanuco (Перу) (571 км)
Погода в Tacna (Перу) (614 км)

Пояснения к столбцам:

Ветер - указаны скорость ветра в м/с - средняя за 10 мин, порывы в срок и между сроками (в фигурных скобках) и направление, откуда дует ветер: С - северный, СВ - северо-восточный, В - восточный, ЮВ - юго-восточный, Ю - южный, ЮЗ - юго-западный, З - западный, СЗ - северо-западный.
Видимость - горизонтальная дальность видимости в метрах или километрах. При видимости от 1 до 10 км при отсутствии осадков обычно наблюдается дымка, при ухудшении видимости до 1 км и менее - туман. В сухую погоду видимость может ухудшаться дымом, пылью или мглою.
Явления - указаны атмосферные явления, наблюдавшиеся в срок или в последний час перед сроком; фигурными скобками обозначены явления, наблюдавшиеся между сроками (за 1-3 часа до срока); квадратными скобками обозначены град или гололедные отложения с указанием их диаметра в мм.
Облачность - указаны через наклонную черту общая и нижняя облачность в баллах и высота нижней границы облаков в метрах; квадратными скобками обозначены формы облаков: Ci - перистые, Cs - перисто-слоистые, Cc - перисто-кучевые, Ac - высококучевые, As - высокослоистые, Sc - слоисто-кучевые, Ns - слоисто-дождевые, Cu - кучевые, Cb - кучево-дождевые. Подробнее классификацию облаков см. в Атласе облаков (PDF).
T - Температура воздуха - температура, измеренная на высоте 2 м над землей.
Td - Температура точки росы - температура, при понижении до которой содержащийся в воздухе водяной пар достигнет насыщения.
f - Относительная влажность воздуха - влажноcть воздуха, измеренная на высоте 2 м над землей.
Te - Эффективная температура - температура, которую ощущает одетый по сезону человек в тени. Характеристика душности погоды. При расчете учитывается влияние влажности воздуха и скорости ветра на теплоощущения человека.
Tes - Эффективная температура на солнце - температура, которую ощущает человек, с поправкой на солнечный нагрев. Характеристика знойности погоды. Зависит от высоты солнца над горизонтом, облачности и скорости ветра. Ночью, в пасмурную погоду, а также при ветре 12 м/с и более поправка равна нулю.
P - Атмосферное давление - приведенное к уровню моря атмосферное давление.
Po - Атмосферное давление - измеренное на уровне метеостанции атмосферное давление.
Tmin - Минимальная температура - минимум температуры воздуха на высоте 2 м над землей.
Tmax - Максимальная температура - максимум температуры воздуха на высоте 2 м над землей.
R - Количество осадков - Количество выпавших осадков за период времени, мм. При наведении курсора мыши на число - период времени, за который выпало указанное количество осадков.
R24 - Количество осадков - Количество выпавших осадков за 24 часа, мм.
S - Снежный покров - Высота снежного покрова, см. При наведении курсора мыши на число - состояние снежного покрова и степень покрытия местности в баллах.